This is the latest recevied weather packets stored in our database for station/object NC0S. If no packets are shown the sender has not sent any weather packets the latest 10 day(s).
| Time | Temp. | Humidity | Pressure | Rain* | Wind** | Luminosity | Snow |
|---|---|---|---|---|---|---|---|
| 1777582843 | 18.33° C | 49% | 1017.1 hPa | 0 mm | - | - | - |
| 1777580462 | 19.44° C | 47% | 1017.6 hPa | 0 mm | - | - | - |
| 1777578662 | 19.44° C | 46% | 1017.7 hPa | 0 mm | - | - | - |
| 1777577442 | 18.89° C | 48% | 1017.8 hPa | 0 mm | - | - | - |
| 1777575043 | 18.89° C | 45% | 1018.1 hPa | 0 mm | - | - | - |
| 1777574442 | 18.89° C | 44% | 1018 hPa | 0 mm | - | - | - |
| 1777565442 | 16.11° C | 51% | 1020.2 hPa | 0 mm | - | - | - |
| 1777563082 | 15° C | 55% | 1020.3 hPa | 0 mm | - | - | - |
| 1777561842 | 15° C | 57% | 1020.5 hPa | 0 mm | - | - | - |
| 1777560042 | 13.89° C | 61% | 1020.3 hPa | 0 mm | - | - | - |
| 1777558242 | 13.33° C | 61% | 1020.2 hPa | 0 mm | - | - | - |
| 1777557642 | 13.33° C | 61% | 1020.3 hPa | 0 mm | - | - | - |
| 1777553443 | 7.78° C | 90% | 1020.2 hPa | 0 mm | - | - | - |
| 1777551042 | 5.56° C | 96% | 1019.9 hPa | 0 mm | - | - | - |
| 1777549245 | 4.44° C | 96% | 1019.6 hPa | 0 mm | - | - | - |
| 1777548684 | 4.44° C | 96% | 1019.7 hPa | 0 mm | - | - | - |
| 1777546844 | 4.44° C | 95% | 1019.7 hPa | 0 mm | - | - | - |
| 1777546264 | 4.44° C | 95% | 1019.6 hPa | 0 mm | - | - | - |
| 1777545644 | 4.44° C | 95% | 1019.9 hPa | 0 mm | - | - | - |
| 1777545084 | 4.44° C | 95% | 1019.7 hPa | 0 mm | - | - | - |
| 1777543844 | 4.44° C | 94% | 1020.2 hPa | 0 mm | - | - | - |
| 1777540845 | 5° C | 92% | 1019.9 hPa | 0 mm | - | - | - |
| 1777540244 | 5° C | 92% | 1019.9 hPa | 0 mm | - | - | - |
| 1777535444 | 5° C | 92% | 1019.1 hPa | 0 mm | - | - | - |
| 1777527645 | 6.11° C | 89% | 1020.4 hPa | 0 mm | - | - | - |
* Rain latest hour (hover to see other rain measurements)
** Current wind speed in m/s (hover to see current wind gust speed)